Location: Gro�bocka
(50.8204°N, 11.9702°E)
Time: 01:53:07
(UTC+00:00)

Timation 1 Rocket - Pass Details

Date: 29 October 2020
Orbit: 896 x 911 km, 70.0° (Epoch: 23 November)

Event Time Altitude Azimuth Distance (km) Brightness Sun altitude
Rises 17:32:39 0° 328° (NNW) 3,550 7.9 -16.4°
Reaches altitude 10° 17:35:11 10° 330° (NNW) 2,606 7.1 -16.8°
Maximum altitude 17:41:13 75° 56° (NE) 947 4.3 -17.8°
Enters shadow 17:46:16 15° 141° (SE) 2,239 6.0 -18.6°
